EW8511 Weather Reports


Display with metric or nautical units.
time (UTC)temp
F
wind
direction
speed
MPH
gust
MPH
rain 1hr
in
rain 24hr
in
rain mn
in
humidity
%
barometer
mb
20260906164516 75 150 0.0 0.0 0.00 0.00 0.00 73 1014.4
20260906163050 73 96 0.0 0.0 0.00 0.00 0.00 74 1014.5
20260906161515 72 51 0.0 0.0 0.00 0.00 0.00 77 1014.5
20260906160047 70 27 0.0 0.0 0.00 0.00 0.00 79 1014.3
20260906154516 68 191 0.0 0.0 0.00 0.00 0.00 83 1014.4
20260906153059 67 19 0.0 0.0 0.00 0.00 0.00 86 1014.4
20260906151534 67 106 0.0 0.0 0.00 0.00 0.00 86 1014.6
20260906150006 67 110 0.0 0.0 0.00 0.00 0.00 88 1014.3
20260906144548 65 113 0.0 0.0 0.00 0.00 0.00 91 1014.4
20260906143110 64 117 0.0 0.0 0.00 0.00 0.00 94 1014.4
20260906141538 63 87 0.0 0.0 0.00 0.00 0.00 94 1014.4
20260906140007 62 142 0.0 0.0 0.00 0.00 0.00 94 1014.8
20260906134551 61 182 0.0 0.0 0.00 0.00 0.00 95 1015.0
20260906133013 60 78 0.0 0.0 0.00 0.00 0.00 94 1014.8
20260906131542 59 111 0.0 0.0 0.00 0.00 0.00 94 1014.9
20260906130019 58 111 0.0 0.0 0.00 0.00 0.00 94 1014.9
20260906124554 57 109 0.0 0.0 0.00 0.00 0.00 94 1014.6
20260906123030 56 108 0.0 0.0 0.00 0.00 0.00 94 1014.3
20260906121603 56 108 0.0 0.0 0.00 0.00 0.00 94 1014.3
20260906120027 56 108 0.0 0.0 0.00 0.00 0.00 94 1014.3
20260906114613 56 108 0.0 0.0 0.00 0.00 0.00 94 1013.9
20260906113044 56 108 0.0 0.0 0.00 0.00 0.00 94 1013.7
20260906111501 56 108 0.0 0.0 0.00 0.00 0.00 94 1013.7
20260906110044 57 108 0.0 0.0 0.00 0.00 0.00 94 1013.6
20260906104520 57 108 0.0 0.0 0.00 0.00 0.00 94 1013.3
20260906103052 57 108 0.0 0.0 0.00 0.00 0.00 94 1013.3
20260906101520 57 109 0.0 0.0 0.00 0.00 0.00 94 1013.2
20260906100103 57 128 0.0 0.0 0.00 0.00 0.00 93 1013.2
20260906094533 57 119 0.0 0.0 0.00 0.00 0.00 94 1013.2
20260906093111 57 119 0.0 0.0 0.00 0.00 0.00 93 1013.2
20260906091539 58 118 0.0 0.0 0.00 0.00 0.00 94 1013.2
20260906090006 58 128 0.0 0.0 0.00 0.00 0.00 94 1013.0
20260906084543 58 143 0.0 0.0 0.00 0.00 0.00 93 1013.0
20260906083015 58 98 0.0 0.0 0.00 0.00 0.00 93 1013.2
20260906081557 58 81 0.0 0.0 0.00 0.00 0.00 93 1013.4
20260906080022 58 81 0.0 0.0 0.00 0.00 0.00 93 1013.4
20260906074613 58 81 0.0 0.0 0.00 0.00 0.00 93 1013.5
20260906073026 59 81 0.0 0.0 0.00 0.00 0.00 93 1013.8
20260906071606 59 81 0.0 0.0 0.00 0.00 0.00 93 1013.5
20260906070033 59 81 0.0 0.0 0.00 0.00 0.00 93 1013.4
20260906064507 59 81 0.0 0.0 0.00 0.00 0.00 93 1013.3
20260906063039 60 81 0.0 0.0 0.00 0.00 0.00 93 1013.2
20260906061511 60 81 0.0 0.0 0.00 0.00 0.00 93 1013.5
20260906060051 60 81 0.0 0.0 0.00 0.00 0.00 93 1013.5
20260906054514 60 81 0.0 0.0 0.00 0.01 0.00 93 1013.5
20260906053100 60 144 0.0 0.0 0.00 0.01 0.00 92 1013.3
20260906051525 60 144 0.0 0.0 0.00 0.01 0.00 92 1013.4
20260906044539 61 144 0.0 0.0 0.00 0.01 0.01 92 1013.5
20260906043007 61 144 0.0 0.0 0.00 0.01 0.01 92 1013.7
20260906041551 61 144 0.0 0.0 0.00 0.01 0.01 92 1013.7
20260906040028 61 144 0.0 0.0 0.00 0.01 0.01 91 1014.0
20260906034611 61 144 0.0 0.0 0.00 0.01 0.01 91 1013.9
20260906033045 61 144 0.0 0.0 0.00 0.01 0.01 90 1013.7
20260906031513 62 144 0.0 0.0 0.00 0.01 0.01 90 1013.5
20260906030048 62 138 0.0 0.0 0.00 0.01 0.01 90 1013.2
20260906024526 62 82 0.0 0.0 0.00 0.01 0.01 91 1013.2
20260906023108 62 57 0.0 0.0 0.00 0.01 0.01 90 1012.8
20260906021538 62 46 0.0 0.0 0.00 0.01 0.01 91 1012.6
20260906020011 62 126 0.0 0.0 0.00 0.01 0.01 91 1012.5
20260906014556 62 150 0.0 0.0 0.00 0.01 0.01 91 1011.7
20260906013022 62 60 0.0 0.0 0.00 0.01 0.01 91 1011.8
20260906011556 63 64 0.0 0.0 0.00 0.01 0.01 91 1011.7
20260906010031 63 105 0.0 0.0 0.00 0.01 0.01 91 1011.8
20260906004606 63 50 0.0 0.0 0.00 0.01 0.01 91 1011.9
20260906003038 63 86 0.0 0.0 0.00 0.01 0.01 90 1011.8
20260906001509 64 64 0.0 0.0 0.00 0.01 0.01 89 1011.6
20260906000050 64 113 0.0 0.0 0.00 0.01 0.01 89 1012.0
20260905234523 64 43 0.0 0.0 0.00 0.01 0.01 89 1012.1
20260905233105 65 66 0.0 0.0 0.00 0.01 0.01 89 1012.2
20260905231540 65 63 0.0 0.0 0.00 0.01 0.01 89 1012.2
20260905230012 65 67 0.0 0.0 0.00 0.01 0.01 89 1012.5
20260905224557 66 104 0.0 0.0 0.00 0.01 0.01 89 1012.6
20260905223009 66 154 0.0 0.0 0.00 0.01 0.01 89 1012.5
20260905221558 66 72 0.0 0.0 0.00 0.01 0.01 88 1012.7
20260905220018 67 119 0.0 0.0 0.00 0.01 0.01 88 1012.7
20260905214601 66 100 0.0 0.0 0.00 0.01 0.01 89 1013.0
20260905213029 66 163 0.0 0.0 0.00 0.01 0.01 89 1012.9
20260905211631 66 78 0.0 0.0 0.00 0.01 0.01 89 1013.0
20260905210048 66 101 0.0 0.0 0.00 0.01 0.01 89 1013.3
20260905204517 66 88 0.0 0.0 0.00 0.01 0.01 89 1013.5
20260905203116 66 70 0.0 0.0 0.00 0.01 0.01 89 1013.5
20260905201526 66 37 0.0 0.0 0.00 0.01 0.01 89 1013.5
20260905200107 66 64 0.0 0.0 0.00 0.01 0.01 90 1013.6
20260905194536 66 17 0.0 0.0 0.00 0.01 0.01 89 1013.6
20260905193110 66 66 0.0 0.0 0.00 0.01 0.01 89 1013.5
20260905191537 66 49 0.0 0.0 0.00 0.01 0.01 89 1013.4
20260905190005 66 71 0.0 0.0 0.00 0.01 0.01 89 1013.3
20260905184551 66 84 0.0 0.0 0.00 0.01 0.01 89 1013.5
20260905183022 66 153 0.0 0.0 0.00 0.01 0.01 90 1013.4
20260905181613 65 130 0.0 0.0 0.00 0.01 0.01 92 1013.5
20260905180032 64 53 0.0 0.0 0.00 0.01 0.01 92 1013.7
20260905174505 64 118 0.0 0.0 0.00 0.01 0.01 93 1013.5
20260905173041 64 62 0.0 0.0 0.00 0.01 0.01 93 1013.7
20260905171525 63 68 0.0 0.0 0.00 0.01 0.01 93 1013.8
20260905170106 64 188 0.0 0.0 0.00 0.01 0.01 93 1013.7